Regional Weather Roundup
Issued by NWS

Home | Current Version | Previous Version | Text Only | Print | Product List | Glossary On
Versions: 1 2 3 4 5 6 7 8 9 10 11 12 13 14 15 16 17 18 19 20 21 22 23 24 25 26 27 28 29 30 31 32 33 34 35 36 37 38 39 40 41 42 43 44 45 46 47 48 49 50
277
ASUS42 KKEY 031010
RWRKEY

FLORIDA REGIONAL WEATHER ROUNDUP FOR THE FLORIDA KEYS
NATIONAL WEATHER SERVICE KEY WEST FLORIDA
500 AM EST SAT DEC 03 2016

...SOUTH FLORIDA AND THE KEYS...

CITY           SKY/WX    TMP DP  RH WIND       PRES   REMARKS
FORT MYERS     PTCLDY    61  52  72 NE12      30.09F
SW REGIONAL AP PTCLDY    60  52  74 NE10      30.10S
NAPLES         CLEAR     62  54  74 NE14      30.08S
MIAMI          MOCLDY    74  68  81 NE7       30.06S
WEST KENDALL   CLOUDY    72  68  87 N7        30.05F
HOMESTEAD      CLOUDY    75  72  88 NE13      30.05R
MARATHON       CLEAR     78  74  87 E10       30.03R
BOCA CHICA NAS PTCLDY    73  71  93 NE14      30.02S
KEY WEST INTL  CLEAR     75  74  96 NE10      30.03S

...INTERNATIONAL WEATHER...

CITY           SKY/WX    TMP DP  RH WIND       PRES   REMARKS
NASSAU BAHAMAS MOCLDY    77  70  78 NE7       30.03
CANCUN MEXICO  PTCLDY    70  70 100 CALM      29.96S
COZUMEL MEXICO CLEAR     72  72 100 CALM      29.96R

ADJACENT COASTAL WATERS...

STATION/POSITION TIME  SKY/WX   TEMP    WIND        PRES    WAVE
                                AIR SEA DIR/SP/G            HT/PER
                 (UTC)          (F)     (DEG/KT/KT) (MB)    (FT/S)
PULASKI SHOAL LI 1000            73      60/ 19/ 20 1017.1R
SAND KEY         0950            76      70/ 16/ 19 1017.0F
LONG KEY         1000            77 78   60/ 14/ 16 1017.2R
FOWEY ROCKS      1000            76 78   40/ 19/ 21 1018.2R

$$




USA.gov is the U.S. government's official web portal to all federal, state and local government web resources and services.